Location: Dodge City Community College Clyde Tombaugh Astronomy Center
(37.7756°N, 100.0412°W)
Time: 07:32:45
(UTC+00:00)

N. Korean satellite - Pass Details

Date: 11 December 2022
Orbit: 408 x 444 km, 97.3° (Epoch: 27 January)

Event Time Altitude Azimuth Distance (km) Brightness Sun altitude
Rises 12:49:06 0° 352° (N) 2,477 9.9 -10.9°
Reaches altitude 10° 12:51:42 10° 331° (NNW) 1,586 8.7 -10.5°
Maximum altitude 12:53:54 16° 291° (WNW) 1,233 7.9 -10.1°
Drops below altitude 10° 12:56:04 10° 250° (WSW) 1,557 8.7 -9.7°
Sets 12:58:36 0° 228° (SW) 2,418 9.8 -9.2°
